Torna al catalogo

COSMOS 2251 DEB

LostLEO
NORAD 37963·DEBRIS·🇷🇺 Russia

Lanciato Jun 16, 1993 da Plesetsk Cosmodrome

Loading…

Prossimi Passaggi (prossime 24 ore)

TLE

ObsoletoSource: Space-Track

Epoca: Apr 26, 2012, 12:58 UTC

1 37963U 93036BPN 12117.54070801  .00001501  00000-0  87977-3 0  9994
2 37963  74.0630 148.5575 0162942 322.7879 194.0245 14.02668937105431

Traccia COSMOS 2251 DEB in tempo reale con AllMySat

Download on the App Store